Showing default

OPS 9347 (IDSCS 25), 3290

Orbit data source: Space-Track

OPS 9347 (IDSCS 25), 3290 is a payload satellite owned by SAMSO (US) in GEO that was launched on Thu, 13 Jun 1968 UTC via a TITAN IIIC launch vehicle from the Air Force Eastern Test Range (AFETR). Payload-class satellites include a variety of spacecraft equipped with specific instruments for various scientific and technological missions. These include communications satellites like Starlink; space stations such as the ISS; scientific satellites like the Hubble; Earth observation satellites from companies like Planet Labs, Umbra, and HawkEye 360; GPS; miniature CubeSats for education and research; and military/defense satellites.

Not visible in the next 10 days
Identifier
3290, 1968-050G
Orbit
GEO
Country
Flag of USUS
Related business
Manufacturer
Philco-Ford
Mission
Non-operational spacecraft
Bus & Motor
IDCSP, Unknown motor
Mass
45 kg wet, 45 kg dry
Launch date (UTC)
1968-06-13 (58 years ago)
Launch vehicle
TITAN IIIC
Launch site
Air Force Eastern Test Range (AFETR)
Object type
Payload
Rocket body
Debris
Shape & HBR
Unknown
Radar Cross Section
Medium (>0.1 m² and <1 m²)

Expand to show TLE details & history
Last TLE update: 21 hours ago

TLE from 21 hours ago
0 OPS 9347 (IDSCS 25)
1 03290U 68050G   26174.69944866 -.00000122  00000-0  00000-0 0  9991
2 03290   6.9845  54.0389 0060259 137.4504  68.1643  1.07036003 47204
Epoch: 2026-06-23T16:47Z
TLE epoch observation values (Epoch: 2026-06-23T16:47:12.364Z)
Latitude
-3.1039°
Longitude
96.46866°
Altitude
33,901.645 km
Speed
3.149 km/s
True Right ascension
17h 20m 32s
True Declination
-3° 06' 02"
Sunlit
Object was in daylight at epoch
Visualization orbit readout
Latitude
Unknown
Longitude
Unknown
Altitude
Unknown
Speed
Unknown
Apparent Right ascension
Unknown
Apparent Declination
Unknown
Sunlit
N/A
Visualization observer readout
Local Sidereal Time
00:46:31
Azimuth
Unknown
Elevation
Unknown
Doppler factor
Unknown
Orbital elements
Apogee altitude
34,235.276 km
Perigee altitude
33,748.743 km
Semi-major axis
40,370.147 km
Eccentricity
0.00603
Inclination
6.9845°
RAAN
54.0389°
Arg. of periapsis
137.4504°
True anomaly
68.80706°
Mean anomaly
68.1643°
Eccentric anomaly
68.4855°
Mean motion
0.26758 °/min
Orbital period
1,345.4 mins
BSTAR
0
Loading maneuver chart data...
Computing Atmospheric mass density...
Loading historical data...
Loading historical data...
Loading historical data...
Loading historical data...
Loading historical data...
Loading historical data...
Loading historical data...

Documentation

Showing up to 5 results
|